TRISAT-R (53108 NORAD) Tracking and Keplerian Element Data

This shows tracking and keplerian element data for the satellite.

Feedback or suggestion? Click here.




ElementValue
Catalog53108
NameTRISAT-R
Epoch Orbit452
Epoch Day266.48142106
Epoch Year2022
RAAN52.4197
Inclination70.1426
Eccentricity0.0012544
Argument of Perigee242.7236
Mean Anonmoly117.2138
Mean Motion6.42152529
Decay Rate-3E-08
L11 53108U 22080D 22266.48142106 -.00000003 00000+0 00000+0 0 9995
L22 53108 70.1426 52.4197 0012544 242.7236 117.2138 6.42152529 4529

Live tracking and technical data element details for TRISAT-R (NORAD 53108). TRISAT-R can be tracked NOW for your location showing map with azimuth and elevation plus other details from your city location.

Track the satellite on the map from your city or location and see movement details for azimuth, elevation, latitude, longitude, range, height, and movement on the map or in text.







IsCatalogInMostPopularTable: catalog: 53108, numindb: 5
Update: records affected: 1



GetName: 53108 TRISAT-R

Hit Count: updated at: Wed, 05 Oct 2022 09:45:40 GMT